EDT,Max TemperatureF,Mean TemperatureF,Min TemperatureF,Max Dew PointF,MeanDew PointF,Min DewpointF,Max Humidity, Mean Humidity, Min Humidity, Max Sea Level PressureIn, Mean Sea Level PressureIn, Min Sea Level PressureIn, Max VisibilityMiles, Mean VisibilityMiles, Min VisibilityMiles, Max Wind SpeedMPH, Mean Wind SpeedMPH, Max Gust SpeedMPH,PrecipitationIn, CloudCover, Events, WindDirDegrees
2013-4-1,26,14,1,27,19,1,100,100,100,,,,0,0,0,82,41,89,0.75,,Fog-Snow,249
2013-4-2,3,0,-2,3,1,-2,100,100,100,,,,0,0,0,92,66,97,0.45,,Fog-Snow,294
2013-4-3,8,3,-2,5,1,-2,100,94,67,,,,0,0,0,107,90,122,0.00,6,Fog-Snow,307
2013-4-4,21,11,1,10,2,-6,100,68,48,,,,0,0,0,93,71,102,0.00,1,Fog,305
2013-4-5,21,14,6,18,10,5,100,77,50,,,,1,0,0,70,50,81,0.05,6,Fog-Snow,301
2013-4-6,12,4,-5,12,-7,-36,100,72,10,,,,0,0,0,79,63,90,0.07,1,Fog-Snow,320
2013-4-7,32,21,10,28,10,-9,100,64,30,,,,6,2,0,71,39,84,0.00,6,Fog-Snow,252
2013-4-8,33,26,19,28,16,1,100,65,27,,,,0,0,0,81,55,84,0.00,4,Fog-Snow,305
2013-4-9,33,28,24,34,27,18,100,97,64,,,,0,0,0,63,44,67,0.51,7,Fog-Rain-Snow,279
2013-4-10,28,26,24,28,27,25,100,100,100,,,,0,0,0,52,40,47,0.32,,Fog-Rain-Snow,311
2013-4-11,26,19,12,23,3,-17,100,56,17,,,,0,0,0,53,38,60,0.00,7,Fog,328
2013-4-12,28,17,8,28,14,1,100,89,42,,,,4,0,0,58,22,53,0.21,8,Fog-Rain-Snow,197
2013-4-13,26,24,17,27,23,18,100,99,93,,,,5,0,0,48,28,38,0.13,4,Fog-Snow,302
2013-4-14,21,18,15,21,18,12,100,99,86,,,,0,0,0,48,36,48,0.20,0,Fog-Snow,308
2013-4-15,33,24,15,30,17,7,93,74,54,,,,,,,29,10,,0.00,3,,215
2013-4-16,37,34,32,37,34,30,100,99,87,,,,0,0,0,85,49,100,0.45,6,Fog-Rain,258
2013-4-17,33,22,17,27,17,-15,100,87,12,,,,0,0,0,69,54,79,0.00,1,Fog,317
2013-4-18,37,30,23,37,20,-9,100,72,18,,,,1,0,0,69,28,90,0.00,6,Fog-Rain,232
2013-4-19,46,42,37,46,41,36,100,97,76,,,,0,0,0,62,51,75,0.50,6,Fog-Rain,228
2013-4-20,41,26,10,41,21,10,100,96,79,,,,0,0,0,78,58,89,0.29,7,Fog-Rain-Snow,280
2013-4-21,19,12,5,10,4,-15,100,78,21,,,,0,0,0,67,42,78,0.00,1,Fog-Snow,316
2013-4-22,24,20,17,12,-5,-17,63,35,20,,,,,,,39,15,43,0.00,3,,138
2013-4-23,28,22,17,28,11,-24,100,71,14,,,,0,0,0,34,27,32,0.00,1,Fog,154
2013-4-24,48,39,30,41,35,30,100,83,57,,,,0,0,0,38,16,47,0.01,5,Fog-Rain,196
2013-4-25,39,29,19,39,21,-2,100,88,31,,,,4,0,0,70,45,77,0.01,2,Fog-Rain,294
2013-4-26,31,26,21,31,17,-4,97,72,28,,,,15,5,3,12,7,,0.02,4,Snow,222
2013-4-27,37,30,23,28,20,16,93,70,44,,,,6,6,6,18,9,21,0.00,2,,270
2013-4-28,41,34,28,28,24,18,81,66,49,,,,,,,13,8,17,0.00,1,,198
2013-4-29,42,37,32,34,29,25,100,76,53,,,,0,0,0,18,14,23,0.00,5,Fog,193
2013-4-30,46,40,33,34,30,28,87,70,57,,,,,,,12,8,,0.00,2,,200